Regional Weather Roundup
Issued by NWS Charleston, SC

Current Version | Previous Version | Graphics & Text | Print | Product List | Glossary On
Versions: 1 2 3 4 5 6 7 8 9 10 11 12 13 14 15 16 17 18 19 20 21 22 23 24 25 26 27 28 29 30 31 32 33 34 35 36 37 38 39 40 41 42 43 44 45 46 47 48 49 50
000 ASUS42 KCHS 232127 RWRCHS REGIONAL WEATHER ROUNDUP NATIONAL WEATHER SERVICE CHARLESTON SC 400 PM EST MON JAN 23 2017 NOTE: "FAIR" INDICATES FEW OR NO CLOUDS BELOW 12,000 FEET WITH NO SIGNIFICANT WEATHER AND/OR OBSTRUCTIONS TO VISIBILITY. NOT ALL STATIONS ARE QUALITY CONTROLLED. USE DATA WITH CAUTION... ESPECIALLY DEWPOINT OBSERVATIONS. SCZ027-030-031-034>040-042>050-232200- ...SOUTHEAST SOUTH CAROLINA... CITY SKY/WX TMP DP RH WIND PRES REMARKS N CHARLESTON CLOUDY 58 48 69 W9 29.30R WATERFRONT PRK N/A 58 51 77 W7 29.29R MOUNT PLEASANT CLOUDY 57 50 77 W10G18 29.32R JOHNS ISLAND CLOUDY 59 50 72 W10G17 29.32R PINOPOLIS N/A 57 50 77 W8 29.21R MONCKS CORNER CLOUDY 57 46 67 W3 29.31R SUMMERVILLE CLOUDY 59 52 77 W8 29.32R BEAUFORT MCAS CLOUDY 59 50 72 W12 29.34R BEAUFORT ARPT CLOUDY 59 50 72 W20G26 29.34R HAZE HILTON HEAD IS CLOUDY 61 50 67 W14G23 29.35R WALTERBORO PTCLDY 59 50 72 W14 29.33R ALLENDALE FAIR 61 52 72 W8G15 29.33R ...SOUTHERN MIDLANDS AND PEE DEE... CITY SKY/WX TMP DP RH WIND PRES REMARKS GEORGETOWN MOCLDY 57 48 72 W12 29.30R KINGSTREE CLOUDY 55 46 71 W5 29.30R ORANGEBURG CLOUDY 59 48 67 W13 29.30R BARNWELL FAIR 63 52 67 W9 29.33R AIKEN FAIR 59 48 67 W12 29.36R MANNING CLOUDY 55 46 71 W3 29.31R COLUMBIA PTSUNNY 59 49 69 W8 29.30R SUMTER CLOUDY 56 46 70 W10 29.28R FLORENCE CLOUDY 56 49 77 W7 29.28R MYRTLE BEACH PTSUNNY 55 48 76 NW7 29.28R N MYRTLE BEACH LGT RAIN 54 52 93 W3 29.26R FOG $$ GAZ063-065-086>088-099>101-113>116-118-119-134>141-150-232200- ...SOUTHEAST GEORGIA... CITY SKY/WX TMP DP RH WIND PRES REMARKS SAVANNAH ARPT CLOUDY 60 50 69 W12G24 29.36R HUNTER AAF CLOUDY 60 56 87 W13 29.34R FORT STEWART CLOUDY 62 52 69 W14G21 29.36R STATESBORO CLOUDY 62 55 80 W12G21 29.37R SYLVANIA MOCLDY N/A N/A N/A W13 29.36R CLAXTON CLOUDY N/A N/A N/A W21G33 29.38R ...CSRA...CENTRAL AND FAR SOUTHEAST GEORGIA... CITY SKY/WX TMP DP RH WIND PRES REMARKS THOMSON CLOUDY 64 55 71 NW12G18 29.41R AUGUSTA-BUSH PTSUNNY 65 50 58 NW6 29.32R AUGUSTA-DANIEL CLOUDY 63 48 58 NW9 29.33R SWAINSBORO MOCLDY 63 52 67 MISG 29.39R VIDALIA CLOUDY 63 55 77 W16G24 29.42R EASTMAN CLOUDY 62 41 46 NW9G21 29.49R HAZLEHURST FAIR 63 54 73 W10G21 29.44R ALMA CLOUDY 62 53 72 W15G28 29.44R WAYCROSS CLOUDY 63 59 88 W10G17 29.46R JESUP CLOUDY 63 52 67 NW16G28 29.42R BAXLEY PTSUNNY 63 55 77 NW16G26 29.44R BRUNSWICK CLOUDY 63 59 88 W18G24 29.42R SAINT SIMONS CLOUDY 61 56 83 W9G21 29.41R $$ SCZ027-028-034-036>038-045-046-048>050-GAZ119-141-232200- ...LAKE AND SUPPLEMENTAL COASTAL OBSERVATIONS... STATION/POSITION TIME TEMP WIND PRES WAVE SWELL AIR SEA DIR/SP/G HT/PER HT/PER/DIR (UTC) (F) (DEG/KT/KT) (MB) (FT/S) (FT/S/D) WINYAH BAY 2045 55 260/ 7 991.0R LAKE MURRAY 2030 56 290/ 7/ 12 991.9R ACE BASIN NERRS 2045 59 280/ 2 993.0R FORT PULASKI 2100 59 59 280/ 13/ 16 994.1 SAPELO ISLAND 2100 62 280/ 19 995.0 $$ ANZ835-935-AMZ111-154-330-350-352-354-370-450-454-472-232200- ...C-MAN AND BUOY OBSERVATIONS... STATION/POSITION TIME TEMP WIND PRES WAVE SWELL AIR SEA DIR/SP/G HT/PER HT/PER/DIR (UTC) (F) (DEG/KT/KT) (MB) (FT/S) (FT/S/D) BUOY 41004 2050 60 69 280/ 23/ 29 991.0R 9/ 8 3/160/11 BUOY 41008 2050 61 60 270/ 21/ 25 994.0R 5/ 5 2/ 90/13 FOLLY BEACH CMAN 2100 58 280/ 8/ 12 993.0R CAPERS NEARSHORE 2008 56 57 280/ 14/ 17 990.9R FRIPP NEARSHORE 2108 59 58 280/ 21/ 29 992.9R STATION/POSITION TIME TEMP WIND PRES WAVE SWELL AIR SEA DIR/SP/G HT/PER HT/PER/DIR (UTC) (F) (DEG/KT/KT) (MB) (FT/S) (FT/S/D) 5E ST. MARYS GA 2100 62 N/A 4/ 4 2/120/13 FRYING PAN BUOY 2100 60 69 250/ 21/ 27 990.0 BUOY 41025 2050 64 76 300/ 2/ 6 989.4F 7/10 7/160/10 CAPE LOOKOUT NC 2100 58 70/ 2/ 3 989.6R BUOY 41002 2050 71 72 230/ 21/ 25 991.6F 14/10 11/200/10 BUOY 41010 NOT AVBL ST AUGUSTINE FL 2100 65 64 270/ 12/ 15 998.5R $$

USA.gov is the U.S. government's official web portal to all federal, state and local government web resources and services.